Weather History for Washington, IA

Change the Weather History Date:

Wednesday, October 26, 2011

  Actual Average Record
Temperature  
Mean Temperature 50 °F -  
Max Temperature 55 °F 57 °F 77 °F (1998)
Min Temperature 46 °F 40 °F 28 °F (2003)
Degree Days  
Heating Degree Days 14    
Moisture  
Dew Point 41 °F    
Average Humidity 73    
Maximum Humidity 87    
Minimum Humidity 58    
Precipitation  
Precipitation 0.00 in - - ()
Sea Level Pressure  
Sea Level Pressure 29.97 in    
Wind  
Wind Speed 12 mph (North)    
Max Wind Speed 17 mph    
Max Gust Speed 22 mph    
Visibility 10 miles    
Events      
Averages and records for this station are not official NWS values.
T = Trace of Precipitation, MM = Missing Value Source: NWS Daily Summary

Daily Weather History Graph

Daily Weather History Graph

Search for Another Location

Airport:

Trip Planner

Search our weather history database for the weather conditions in past years. The results will help you decide how hot, cold, wet, or windy it might be!

Date:

Astronomy

Oct. 26, 2011 Rise Set
Actual Time 7:30 AM CDT 6:10 PM CDT
Civil Twilight 7:02 AM CDT 6:38 PM CDT
Nautical Twilight 6:29 AM CDT 7:10 PM CDT
Astronomical Twilight 5:57 AM CDT 7:42 PM CDT
Moon 7:19 AM CDT (10/26) 5:51 PM CDT (10/26)
Length of Visible Light 11h 36m
Length of Day
10h 39m
Waning Crescent, 0% of the Moon is Illuminated
Oct 26
Waning Crescent
Oct 26
New
Nov 2
First Quarter
Nov 10
Full
Nov 18
Last Quarter

Hourly Weather History & Observations

Time (CDT) Temp. Windchill Dew Point Humidity Pressure Visibility Wind Dir Wind Speed Gust Speed Precip Events Conditions
12:15 AM 55.4 °F - 46.4 °F 72% 29.83 in 10.0 mi NNW 12.7 mph - N/A   Clear
12:35 AM 53.6 °F - 46.4 °F 77% 29.83 in 10.0 mi NNW 11.5 mph - N/A   Clear
12:55 AM 53.6 °F - 46.4 °F 77% 29.84 in 10.0 mi North 13.8 mph 18.4 mph N/A   Clear
1:15 AM 51.8 °F - 46.4 °F 82% 29.86 in 10.0 mi NNW 11.5 mph - N/A   Scattered Clouds
1:55 AM 51.8 °F - 44.6 °F 76% 29.87 in 10.0 mi NNW 10.4 mph - N/A   Overcast
2:15 AM 51.8 °F - 46.4 °F 82% 29.86 in 7.0 mi North 13.8 mph 19.6 mph N/A   Overcast
2:35 AM 51.8 °F - 46.4 °F 82% 29.87 in 7.0 mi North 12.7 mph - N/A   Overcast
2:55 AM 51.8 °F - 46.4 °F 82% 29.88 in 7.0 mi North 16.1 mph - N/A   Overcast
3:15 AM 51.8 °F - 44.6 °F 76% 29.89 in 7.0 mi North 11.5 mph - N/A   Overcast
3:35 AM 51.8 °F - 44.6 °F 76% 29.90 in 7.0 mi NNW 15.0 mph 20.7 mph N/A   Overcast
3:55 AM 50.0 °F - 44.6 °F 82% 29.91 in 7.0 mi NNW 15.0 mph - N/A   Overcast
4:15 AM 50.0 °F - 44.6 °F 82% 29.91 in 7.0 mi NNW 13.8 mph 20.7 mph N/A   Overcast
4:35 AM 48.2 °F - 44.6 °F 87% 29.92 in 7.0 mi NNW 16.1 mph 21.9 mph N/A   Overcast
4:55 AM 48.2 °F - 44.6 °F 87% 29.91 in 5.0 mi North 15.0 mph 19.6 mph N/A   Haze
5:15 AM 48.2 °F - 44.6 °F 87% 29.92 in 7.0 mi North 13.8 mph 19.6 mph N/A   Overcast
5:35 AM 48.2 °F - 42.8 °F 82% 29.93 in 10.0 mi NNW 13.8 mph - N/A   Overcast
5:55 AM 48.2 °F - 42.8 °F 82% 29.94 in 10.0 mi North 11.5 mph - N/A   Overcast
6:15 AM 48.2 °F - 42.8 °F 82% 29.94 in 10.0 mi NNW 12.7 mph 18.4 mph N/A   Overcast
6:35 AM 48.2 °F - 42.8 °F 82% 29.95 in 10.0 mi NNW 13.8 mph 19.6 mph N/A   Overcast
7:15 AM 48.2 °F - 42.8 °F 82% 29.94 in 10.0 mi NNW 15.0 mph - N/A   Overcast
7:35 AM 48.2 °F - 42.8 °F 82% 29.94 in 10.0 mi North 16.1 mph - N/A   Overcast
7:55 AM 48.2 °F - 41.0 °F 76% 29.95 in 10.0 mi North 12.7 mph - N/A   Overcast
8:15 AM 48.2 °F - 41.0 °F 76% 29.97 in 10.0 mi North 15.0 mph - N/A   Overcast
8:35 AM 48.2 °F - 42.8 °F 82% 29.99 in 10.0 mi North 10.4 mph - N/A   Overcast
8:55 AM 48.2 °F - 41.0 °F 76% 29.99 in 10.0 mi North 13.8 mph - N/A   Overcast
9:15 AM 48.2 °F - 42.8 °F 82% 30.00 in 10.0 mi NNW 11.5 mph - N/A   Overcast
9:35 AM 48.2 °F - 41.0 °F 76% 29.97 in 10.0 mi North 13.8 mph - N/A   Overcast
9:55 AM 48.2 °F - 41.0 °F 76% 29.99 in 10.0 mi North 10.4 mph 19.6 mph N/A   Overcast
10:15 AM 48.2 °F - 41.0 °F 76% 30.00 in 10.0 mi North 12.7 mph - N/A   Overcast
10:55 AM 48.2 °F - 39.2 °F 71% 30.03 in 10.0 mi North 6.9 mph - N/A   Overcast
11:15 AM 48.2 °F - 39.2 °F 71% 30.03 in 10.0 mi North 12.7 mph - N/A   Overcast
11:35 AM 48.2 °F - 39.2 °F 71% 30.03 in 10.0 mi North 11.5 mph - N/A   Overcast
11:55 AM 48.2 °F - 39.2 °F 71% 30.03 in 10.0 mi North 13.8 mph - N/A   Overcast
12:15 PM 48.2 °F - 39.2 °F 71% 30.02 in 10.0 mi North 10.4 mph - N/A   Overcast
12:35 PM 48.2 °F - 39.2 °F 71% 30.01 in 10.0 mi North 11.5 mph - N/A   Overcast
12:55 PM 48.2 °F - 39.2 °F 71% 30.00 in 10.0 mi North 12.7 mph - N/A   Overcast
1:15 PM 50.0 °F - 39.2 °F 66% 29.99 in 10.0 mi North 12.7 mph - N/A   Overcast
1:35 PM 51.8 °F - 39.2 °F 62% 29.99 in 10.0 mi NNE 11.5 mph - N/A   Overcast
2:15 PM 51.8 °F - 39.2 °F 62% 29.98 in 10.0 mi North 17.3 mph - N/A   Overcast
2:35 PM 53.6 °F - 39.2 °F 58% 29.99 in 10.0 mi North 15.0 mph - N/A   Overcast
3:15 PM 53.6 °F - 39.2 °F 58% 30.00 in 10.0 mi North 16.1 mph 19.6 mph N/A   Overcast
3:35 PM 51.8 °F - 39.2 °F 62% 30.00 in 10.0 mi North 13.8 mph 18.4 mph N/A   Overcast
3:55 PM 51.8 °F - 39.2 °F 62% 30.00 in 10.0 mi North 16.1 mph - N/A   Overcast
4:15 PM 51.8 °F - 39.2 °F 62% 30.00 in 10.0 mi North 11.5 mph - N/A   Overcast
4:35 PM 51.8 °F - 37.4 °F 58% 30.00 in 10.0 mi North 13.8 mph - N/A   Overcast
4:55 PM 51.8 °F - 37.4 °F 58% 30.00 in 10.0 mi North 10.4 mph - N/A   Mostly Cloudy
5:15 PM 51.8 °F - 37.4 °F 58% 30.00 in 10.0 mi North 11.5 mph - N/A   Scattered Clouds
5:35 PM 50.0 °F - 37.4 °F 62% 30.00 in 10.0 mi North 11.5 mph - N/A   Scattered Clouds
5:55 PM 50.0 °F - 39.2 °F 66% 30.00 in 10.0 mi North 9.2 mph - N/A   Mostly Cloudy
6:15 PM 48.2 °F - 39.2 °F 71% 30.01 in 10.0 mi North 8.1 mph - N/A   Overcast
6:35 PM 48.2 °F - 37.4 °F 66% 30.01 in 10.0 mi North 8.1 mph - N/A   Overcast
7:15 PM 48.2 °F - 39.2 °F 71% 30.03 in 10.0 mi NNW 6.9 mph - N/A   Overcast
7:35 PM 48.2 °F - 39.2 °F 71% 30.04 in 10.0 mi NNW 4.6 mph - N/A   Overcast
7:55 PM 46.4 °F 44.3 °F 39.2 °F 76% 30.03 in 10.0 mi NNW 4.6 mph - N/A   Overcast
8:15 PM 46.4 °F 43.5 °F 37.4 °F 71% 30.03 in 10.0 mi NNW 5.8 mph - N/A   Overcast
8:35 PM 46.4 °F 43.5 °F 39.2 °F 76% 30.02 in 10.0 mi North 5.8 mph - N/A   Overcast
8:55 PM 46.4 °F 44.3 °F 39.2 °F 76% 30.04 in 10.0 mi NNW 4.6 mph - N/A   Mostly Cloudy
9:15 PM 46.4 °F 45.2 °F 37.4 °F 71% 30.05 in 10.0 mi NW 3.5 mph - N/A   Mostly Cloudy
9:35 PM 46.4 °F 45.2 °F 39.2 °F 76% 30.04 in 10.0 mi NNW 3.5 mph - N/A   Scattered Clouds
9:55 PM 46.4 °F 45.2 °F 37.4 °F 71% 30.03 in 10.0 mi North 3.5 mph - N/A   Scattered Clouds
10:15 PM 44.6 °F 41.4 °F 37.4 °F 76% 30.03 in 10.0 mi North 5.8 mph - N/A   Mostly Cloudy
10:35 PM 46.4 °F 44.3 °F 37.4 °F 71% 30.03 in 10.0 mi NNW 4.6 mph - N/A   Scattered Clouds
11:15 PM 46.4 °F 43.5 °F 39.2 °F 76% 30.03 in 10.0 mi NNW 5.8 mph - N/A   Mostly Cloudy
11:35 PM 46.4 °F 44.3 °F 37.4 °F 71% 30.02 in 10.0 mi NNW 4.6 mph - N/A   Scattered Clouds
11:55 PM 44.6 °F 42.2 °F 37.4 °F 76% 30.03 in 10.0 mi NNW 4.6 mph - N/A   Mostly Cloudy